Weather History for Omaha, NE

Change the Weather History Date:

Saturday, April 6, 2013

  Actual Average Record
Temperature  
Mean Temperature 60 °F 48 °F  
Max Temperature 72 °F 60 °F 92 °F (1972)
Min Temperature 48 °F 36 °F 16 °F (1982)
Degree Days  
Heating Degree Days 5 17  
Month to date heating degree days 118 108  
Since 1 July heating degree days 5545 5697  
Cooling Degree Days 0 0  
Month to date cooling degree days 0 0  
Year to date cooling degree days 0 1  
Growing Degree Days 12 (Base 50)    
Moisture  
Dew Point 39 °F    
Average Humidity 48    
Maximum Humidity 68    
Minimum Humidity 28    
Precipitation  
Precipitation T in 0.08 in 2.56 in (1938)
Month to date precipitation T 0.49  
Year to date precipitation 3.27 4.05  
Snow  
Snow 0.00 in 0.00 in - ()
Month to date snowfall 0.0 0.3  
Since 1 July snowfall 32.5 25.7  
Snow Depth 0.00 in    
Sea Level Pressure  
Sea Level Pressure 29.66 in    
Wind  
Wind Speed 12 mph (WSW)    
Max Wind Speed 24 mph    
Max Gust Speed 31 mph    
Visibility 10 miles    
Events      
T = Trace of Precipitation, MM = Missing Value Source: NWS Daily Summary

Daily Weather History Graph

Daily Weather History Graph

Search for Another Location

Airport:

Trip Planner

Search our weather history database for the weather conditions in past years. The results will help you decide how hot, cold, wet, or windy it might be!

Date:

Astronomy

Apr. 06, 2013 Rise Set
Actual Time 6:58 AM CDT 7:54 PM CDT
Civil Twilight 6:29 AM CDT 8:22 PM CDT
Nautical Twilight 5:56 AM CDT 8:56 PM CDT
Astronomical Twilight 5:21 AM CDT 9:31 PM CDT
Moon 4:44 AM CDT (4/6) 4:22 PM CDT (4/6)
Length of Visible Light 13h 52m
Length of Day
12h 56m
Waning Crescent, 15% of the Moon is Illuminated
Apr 6
Waning Crescent
Apr 10
New
Apr 18
First Quarter
Apr 25
Full
May 2
Last Quarter

Hourly Weather History & Observations

Time (CDT) Temp. Dew Point Humidity Pressure Visibility Wind Dir Wind Speed Gust Speed Precip Events Conditions
12:52 AM 59.0 °F 37.9 °F 46% 29.70 in 10.0 mi SSE 17.3 mph - N/A   Overcast
1:52 AM 57.0 °F 39.0 °F 51% 29.70 in 10.0 mi SSE 13.8 mph - N/A   Mostly Cloudy
2:52 AM 59.0 °F 39.0 °F 48% 29.67 in 10.0 mi South 18.4 mph - N/A   Mostly Cloudy
3:52 AM 57.9 °F 39.0 °F 49% 29.66 in 10.0 mi South 11.5 mph 21.9 mph N/A   Overcast
4:52 AM 57.0 °F 39.9 °F 53% 29.63 in 10.0 mi South 17.3 mph - N/A   Overcast
5:52 AM 55.0 °F 39.9 °F 57% 29.62 in 10.0 mi South 12.7 mph - N/A   Overcast
6:52 AM 52.0 °F 41.0 °F 66% 29.60 in 10.0 mi SSE 12.7 mph - N/A   Overcast
7:52 AM 53.1 °F 41.0 °F 64% 29.61 in 10.0 mi South 10.4 mph - N/A   Overcast
8:52 AM 55.9 °F 42.1 °F 60% 29.60 in 10.0 mi South 12.7 mph - N/A   Overcast
9:52 AM 59.0 °F 44.1 °F 58% 29.60 in 10.0 mi SSW 15.0 mph 24.2 mph N/A   Overcast
10:52 AM 57.9 °F 43.0 °F 58% 29.60 in 10.0 mi West 16.1 mph 20.7 mph N/A   Overcast
11:52 AM 57.0 °F 37.0 °F 47% 29.63 in 10.0 mi WNW 15.0 mph - N/A   Overcast
12:52 PM 54.0 °F 39.0 °F 57% 29.66 in 10.0 mi WNW 18.4 mph 27.6 mph 0.00 in   Scattered Clouds
1:52 PM 61.0 °F 39.9 °F 46% 29.65 in 10.0 mi NNW 13.8 mph 21.9 mph N/A   Scattered Clouds
2:52 PM 69.1 °F 39.9 °F 35% 29.62 in 10.0 mi NW 18.4 mph 27.6 mph N/A   Scattered Clouds
3:52 PM 71.1 °F 39.0 °F 31% 29.62 in 10.0 mi NW 18.4 mph 26.5 mph N/A   Scattered Clouds
4:52 PM 70.0 °F 36.0 °F 29% 29.65 in 10.0 mi NW 17.3 mph 28.8 mph N/A   Mostly Cloudy
5:52 PM 70.0 °F 37.0 °F 30% 29.68 in 10.0 mi NW 16.1 mph 26.5 mph N/A   Scattered Clouds
6:52 PM 69.1 °F 37.0 °F 31% 29.69 in 10.0 mi NW 10.4 mph - N/A   Scattered Clouds
7:52 PM 62.1 °F 37.9 °F 41% 29.72 in 10.0 mi NW 5.8 mph - N/A   Mostly Cloudy
8:52 PM 60.1 °F 37.0 °F 42% 29.73 in 10.0 mi NW 5.8 mph - 0.00 in   Mostly Cloudy
9:52 PM 57.9 °F 37.9 °F 47% 29.75 in 10.0 mi NW 3.5 mph - N/A   Scattered Clouds
10:52 PM 53.1 °F 39.0 °F 59% 29.78 in 10.0 mi Calm Calm - N/A   Scattered Clouds
11:52 PM 53.1 °F 39.0 °F 59% 29.78 in 10.0 mi Calm Calm - N/A   Scattered Clouds